Bakersfield, CA

9:58 PM PDT on October 18, 2017 (GMT -0700)
Meadows

Weather History for KBFL - July, 2013

Change the Weather History Date:

Saturday, July 13, 2013

  Actual Average Record
Temperature  
Mean Temperature 88 °F 84 °F  
Max Temperature 104 °F 97 °F 111 °F (1908)
Min Temperature 71 °F 71 °F 46 °F (1914)
Degree Days  
Heating Degree Days 0    
Month to date heating degree days 0  
Since 1 June heating degree days 0  
Since 1 July heating degree days 0  
Cooling Degree Days 23    
Month to date cooling degree days 319  
Year to date cooling degree days 1168  
Since 1 June cooling degree days 789  
Growing Degree Days 38 (Base 50)    
Moisture  
Dew Point 42 °F    
Average Humidity 27    
Maximum Humidity 44    
Minimum Humidity 9    
Precipitation  
Precipitation 0.00 in 0.00 in 0.00 in (2017)
Month to date precipitation 0.00 0.00  
Year to date precipitation 2.36 4.39  
Since 1 July precipitation 0.00  
Snow  
Snow 0.00 in - - ()
Month to date snowfall 0.0  
Since 1 June snowfall 0.0  
Since 1 July snowfall 0.0  
Snow Depth 0.00 in    
Sea Level Pressure  
Sea Level Pressure 29.85 in    
Wind  
Wind Speed 6 mph (NNW)    
Max Wind Speed 16 mph    
Max Gust Speed 21 mph    
Visibility 10 miles    
Events      
T = Trace of Precipitation, MM = Missing Value Source: NWS Daily Summary

Daily Weather History Graph

Daily Weather History Graph

Search for Another Location

Airport or City:

Trip Planner

Search our weather history database for the weather conditions in past years. The results will help you decide how hot, cold, wet, or windy it might be!

Date:

Astronomy

Jul. 13, 2013 Rise Set
Actual Time 5:51 AM PDT 8:12 PM PDT
Civil Twilight 5:22 AM PDT 8:41 PM PDT
Nautical Twilight 4:46 AM PDT 9:17 PM PDT
Astronomical Twilight 4:06 AM PDT 9:56 PM PDT
Moon 10:59 AM PDT (7/13) 11:09 PM PDT (7/13)
Length of Visible Light 15h 19m
Length of Day
14h 20m
Waxing Crescent, 26% of the Moon is Illuminated
Jul 13
Waxing Crescent
Jul 15
First Quarter
Jul 22
Full
Jul 29
Last Quarter
Aug 6
New

Hourly Weather History & Observations

Time (PDT) Temp. Dew Point Humidity Pressure Visibility Wind Dir Wind Speed Gust Speed Precip Events Conditions
12:54 AM 77.0 °F 45.0 °F 32% 29.85 in 10.0 mi North 4.6 mph - N/A   Clear
1:54 AM 75.9 °F 45.0 °F 33% 29.86 in 10.0 mi Calm Calm - N/A   Clear
2:54 AM 73.0 °F 45.0 °F 37% 29.87 in 10.0 mi NW 3.5 mph - N/A   Clear
3:54 AM 73.9 °F 46.9 °F 38% 29.87 in 10.0 mi NNW 4.6 mph - N/A   Clear
4:54 AM 73.9 °F 46.9 °F 38% 29.87 in 10.0 mi Calm Calm - N/A   Clear
5:54 AM 72.0 °F 48.0 °F 43% 29.88 in 10.0 mi SSE 3.5 mph - N/A   Clear
6:54 AM 73.0 °F 48.0 °F 41% 29.89 in 10.0 mi ESE 3.5 mph - N/A   Clear
7:54 AM 77.0 °F 48.0 °F 36% 29.90 in 10.0 mi Calm Calm - N/A   Clear
8:54 AM 80.1 °F 48.9 °F 34% 29.91 in 10.0 mi Calm Calm - N/A   Clear
9:54 AM 84.0 °F 51.1 °F 32% 29.90 in 10.0 mi NW 4.6 mph - N/A   Clear
10:54 AM 87.1 °F 48.9 °F 27% 29.90 in 10.0 mi Calm Calm - N/A   Clear
11:54 AM 91.9 °F 46.0 °F 21% 29.88 in 10.0 mi Variable 5.8 mph - N/A   Clear
12:54 PM 96.1 °F 46.0 °F 18% 29.86 in 10.0 mi WNW 6.9 mph - N/A   Clear
1:54 PM 98.1 °F 48.0 °F 18% 29.85 in 10.0 mi WNW 11.5 mph - N/A   Clear
2:54 PM 100.0 °F 45.0 °F 15% 29.83 in 10.0 mi WNW 11.5 mph - N/A   Clear
3:54 PM 102.0 °F 42.1 °F 13% 29.81 in 10.0 mi WNW 13.8 mph 20.7 mph N/A   Clear
4:54 PM 102.0 °F 37.0 °F 11% 29.80 in 10.0 mi NW 11.5 mph - N/A   Clear
5:54 PM 102.0 °F 37.0 °F 11% 29.79 in 10.0 mi NW 13.8 mph - N/A   Clear
6:54 PM 100.0 °F 37.9 °F 12% 29.80 in 10.0 mi NW 10.4 mph - N/A   Clear
7:54 PM 97.0 °F 36.0 °F 12% 29.80 in 10.0 mi NNW 6.9 mph - N/A   Clear
8:54 PM 90.0 °F 34.0 °F 14% 29.81 in 10.0 mi North 5.8 mph - N/A   Clear
9:54 PM 89.1 °F 34.0 °F 14% 29.84 in 10.0 mi North 10.4 mph - N/A   Clear
10:54 PM 86.0 °F 23.0 °F 10% 29.85 in 10.0 mi North 10.4 mph - N/A   Clear
11:54 PM 84.0 °F 19.0 °F 9% 29.87 in 10.0 mi NNW 11.5 mph - N/A   Clear